Location: Berlin
(38.3226°N, 75.2177°W)
Time: 18:20:07
(UTC+00:00)

DELTA 2 R/B (1) - Pass Details

Date: 26 October 2020
Orbit: 789 x 803 km, 39.6° (Epoch: 04 December)

Event Time Altitude Azimuth Distance (km) Brightness Sun altitude
Exits shadow 08:43:58 54° 106° (ESE) 969 4.2 -31.4°
Drops below altitude 10° 08:48:14 10° 104° (ESE) 2,370 6.8 -30.6°
Sets 08:50:43 0° 105° (ESE) 3,301 7.8 -30.1°
